Home   Weather   Detmold   Past weeks

Flag for Germany Past Weather in Detmold, North Rhine-Westphalia, Germany — Yesterday and Last 2 Weeks

Now
73 °F

Sunny.


Feels Like: 77 °F
Forecast: 55 / 80 °F
Wind: 7 mph from Northeast

Location: Paderborn / Lippstadt

Current Time: May 26, 2017 at 9:06:34 pm

Latest Report: May 26, 2017 at 8:20 pm


Visibility: 10 mi

Pressure: 30.12 "Hg

Humidity: 47%

Dew Point: 52 °F

Location of DetmoldLocation

Past Weather in Detmold — Graph

°F

Detmold Temperature Yesterday

Maximum temperature yesterday: 68 °F (at 3:20 pm)
Minimum temperature yesterday: 52 °F (at 4:20 am)
Average temperature yesterday: 58 °F

High & Low Weather Summary for the Past Weeks

 TemperatureHumidityPressure
High81 °F (May 17, 2:50 pm)100% (May 19, 4:50 pm)30.42 "Hg (May 19, 4:50 pm)
Low43 °F (May 21, 5:20 am)35% (May 21, 4:20 pm)29.47 "Hg (May 11, 7:20 pm)
Average61 °F66%30.08 "Hg
* Reported May 11 7:20 pm — May 26 7:50 pm, Detmold. Weather by CustomWeather, © 2017

Note: Actual official high and low records may vary slightly from our data, if they occured in-between our weather recording intervals... More about our weather records

Advertising

Detmold Weather History for the Previous 24 Hours

Scroll right to see more
 ConditionsComfort  
Time TempWeatherWind HumidityBarometerVisibility
7:50 pm
Fri, May 26
73 °FSunny.8 mph47%30.12 "Hg10 mi
7:20 pm75 °FSunny.7 mph39%30.12 "Hg10 mi
6:50 pm77 °FSunny.8 mph39%30.12 "Hg10 mi
5:20 pm77 °FSunny.7 mph39%30.15 "Hg10 mi
4:50 pm77 °FSunny.9 mph39%30.15 "Hg10 mi
4:20 pm77 °FPassing clouds.10 mph36%30.15 "HgN/A
3:50 pm75 °FPassing clouds.6 mph41%30.15 "HgN/A
3:20 pm77 °FSunny.5 mph42%30.18 "Hg10 mi
2:50 pm73 °FSunny.6 mph44%30.18 "Hg10 mi
2:20 pm73 °FSunny.6 mph44%30.18 "Hg10 mi
1:50 pm73 °FPassing clouds.5 mph47%30.18 "HgN/A
1:20 pm72 °FSunny.7 mph47%30.21 "Hg10 mi
12:50 pm70 °FPassing clouds.7 mph53%30.21 "HgN/A
12:20 pm70 °FPassing clouds.5 mph57%30.21 "HgN/A
11:50 am68 °FPassing clouds.3 mph56%30.21 "HgN/A
11:20 am66 °FPassing clouds.6 mph64%30.21 "HgN/A
10:50 am66 °FPassing clouds.5 mph64%30.21 "HgN/A
10:20 am64 °FSunny.3 mph68%30.21 "Hg10 mi
9:50 am64 °FPassing clouds.5 mph64%30.24 "HgN/A
9:20 am63 °FPassing clouds.3 mph73%30.24 "HgN/A
8:50 am61 °FPassing clouds.6 mph72%30.21 "HgN/A
8:20 am57 °FPassing clouds.6 mph82%30.21 "HgN/A
7:50 am57 °FPassing clouds.5 mph88%30.21 "HgN/A
7:20 am55 °FScattered clouds.5 mph94%30.21 "Hg5 mi
6:50 am52 °FPartly sunny.5 mph94%30.21 "Hg4 mi
6:20 am50 °FFog.6 mph100%30.21 "Hg4 mi
5:50 am48 °FFog.3 mph94%30.24 "Hg5 mi
5:20 am48 °FSunny.2 mph94%30.21 "Hg10 mi
4:50 am48 °FPassing clouds.5 mph100%30.21 "HgN/A
4:20 am54 °FPassing clouds.3 mph94%30.21 "HgN/A
3:50 am50 °FClear.3 mph94%30.21 "Hg10 mi
3:20 am52 °FClear.2 mph94%30.21 "Hg10 mi
2:50 am52 °FClear.1 mph94%30.21 "Hg10 mi
2:20 am52 °FPassing clouds.3 mph88%30.21 "HgN/A
1:50 am54 °FClear.5 mph88%30.21 "Hg10 mi
1:20 am54 °FPassing clouds.3 mph82%30.21 "HgN/A
12:50 am55 °FCool.2 mph82%30.21 "HgN/A
12:20 am55 °FClear.3 mph82%30.21 "Hg10 mi
11:50 pm
Thu, May 25
55 °FClear.1 mph82%30.21 "Hg10 mi
11:20 pm59 °FPassing clouds.5 mph77%30.21 "HgN/A
10:50 pm59 °FClear.2 mph77%30.21 "Hg10 mi
10:20 pm59 °FClear.2 mph77%30.21 "Hg10 mi
9:50 pm61 °FClear.3 mph72%30.21 "Hg10 mi
9:20 pm61 °FPassing clouds.2 mph72%30.21 "HgN/A
Weather by CustomWeather, © 2017

See weather overviewHow to use our weather pages